Theta_e
324 325 322 322 322 323 323 323 322 322 321 321 320 322 320 321 320 322 322 322 321 320 319 320 319 320 320 320 320 318 319 320 320 320 319 317 316 317 316 315 316 313
326 325 324 324 322 323 323 324 324 322 321 322 322 322 323 322 321 323 322 321 321 320 320 319 320 319 319 318 319 318 318 319 318 318 320 319 318 318 317 317 315 315
327 326 325 325 322 324 326 325 326 324 321 322 324 324 323 323 321 323 323 322 321 320 320 320 319 319 319 319 319 319 319 319 319 319 318 316 317 317 317 316 315 315
328 328 327 326 324 324 326 325 325 325 323 322 322 323 324 324 322 322 323 322 322 321 321 320 320 318 318 318 319 317 318 318 317 319 318 318 317 315 315 315 314 314
329 328 329 329 327 326 326 326 325 324 323 322 323 323 324 324 322 321 322 321 323 321 321 320 319 319 319 318 318 317 317 316 317 319 316 315 316 316 315 315 314 314
330 328 327 327 328 328 327 326 324 323 324 324 323 323 325 324 322 321 321 321 322 321 321 320 319 319 319 319 319 318 317 316 316 316 315 315 315 315 313 315 314 313
328 328 328 324 323 325 327 327 326 323 323 325 324 324 325 324 322 321 321 320 321 321 320 320 319 319 319 319 318 317 317 317 315 315 313 314 314 313 312 313 311 310
329 330 328 326 326 325 326 328 326 327 323 323 322 323 324 323 322 322 322 321 320 320 320 319 319 318 318 318 317 317 317 316 316 314 313 313 313 312 313 312 312 312
327 326 326 328 327 326 326 328 327 327 327 325 322 322 323 323 322 322 322 321 320 320 320 319 319 318 318 318 317 317 315 315 315 314 313 313 312 312 310 312 311 312
327 327 326 324 323 325 325 324 328 327 326 326 326 323 322 322 322 322 322 321 320 320 320 319 319 318 318 317 317 316 315 314 314 314 314 314 312 312 310 310 311 310
326 327 327 328 326 328 325 325 325 325 324 326 325 325 323 322 322 321 321 321 321 320 319 319 319 318 317 317 317 317 316 315 314 314 314 313 313 312 312 310 310 309
325 326 327 326 325 325 325 327 327 326 326 326 325 325 323 325 323 321 321 321 321 320 320 320 319 319 318 317 316 317 317 316 315 314 314 313 312 312 311 310 310 308
324 324 325 326 326 325 325 327 326 326 325 325 326 325 324 324 324 322 320 321 321 321 321 320 320 319 318 318 317 316 316 315 315 314 314 313 312 311 310 309 308 307
318 319 321 322 326 327 326 327 327 327 327 326 325 324 324 322 320 322 322 321 320 321 321 321 320 319 318 318 317 317 316 315 314 314 313 312 311 309 308 307 307 306
317 318 319 321 321 322 323 324 324 326 327 326 326 325 325 325 322 322 322 322 322 322 322 321 320 319 318 318 317 316 315 315 314 313 312 311 309 307 307 306 306 306
313 315 316 318 318 319 320 323 323 324 324 325 325 326 325 324 325 324 322 321 322 321 322 321 320 320 315 307 309 314 314 313 314 312 310 309 307 307 306 306 305 306
310 311 311 311 315 318 319 319 319 321 322 322 323 324 325 324 324 323 322 322 321 321 320 319 319 318 299 299 300 303 313 313 311 309 309 308 307 306 305 305 305 304
308 308 309 310 311 312 315 317 319 320 319 320 321 322 323 324 323 323 323 323 322 319 320 319 318 300 296 296 297 297 303 312 310 309 307 306 306 305 305 305 304 305
307 307 307 308 309 310 314 315 315 317 318 319 319 321 322 322 322 322 321 321 319 317 317 317 311 295 295 295 295 295 294 302 308 308 306 306 305 305 304 304 304 304
308 308 308 309 309 310 310 313 315 315 317 318 319 320 320 319 319 320 320 319 318 317 316 315 307 296 294 294 294 293 292 296 309 307 306 305 305 304 304 304 303 303
309 308 308 309 309 310 311 310 311 315 316 317 317 317 318 317 318 317 318 318 318 317 316 308 308 293 293 292 292 292 290 293 307 307 305 305 305 304 304 304 303 303
309 308 308 308 308 309 309 309 311 313 316 317 317 316 317 318 318 318 318 318 317 317 314 306 303 291 291 291 291 291 290 301 304 304 304 304 304 304 304 304 304 304
308 308 307 308 308 308 308 309 310 311 314 316 315 316 316 316 316 317 317 318 317 316 314 304 299 292 290 290 291 289 293 301 303 303 304 304 304 304 304 304 304 303
308 307 307 307 307 306 307 308 310 311 313 315 314 314 314 315 315 315 316 317 316 314 311 301 299 293 290 290 290 290 295 301 302 303 303 303 303 304 304 303 303 304
308 308 308 308 308 308 309 308 309 310 312 314 314 314 314 314 314 314 315 316 315 313 303 302 299 294 290 290 290 289 296 302 302 301 301 301 302 302 303 304 303 303
308 308 309 309 309 309 310 310 310 309 311 313 313 313 312 313 313 314 314 314 313 308 305 303 299 296 293 289 290 289 291 300 300 298 298 300 300 300 301 302 302 302
Wind_Speed
10 9 10 10 9 9 9 8 8 9 8 8 7 7 7 6 7 6 6 6 6 6 5 5 4 4 4 4 3 4 5 5 4 4 5 5 5 5 5 5 5 4
11 10 10 9 9 9 9 8 8 9 8 8 8 8 8 8 8 7 7 6 6 6 6 5 5 4 3 4 3 3 4 4 4 3 3 3 3 4 4 4 5 4
11 11 10 11 9 10 10 9 8 9 8 8 9 9 9 10 9 8 7 7 7 7 6 6 5 5 4 4 3 3 4 3 4 3 3 3 3 3 2 2 3 3
12 11 10 9 9 10 9 9 9 9 8 9 9 9 9 9 10 10 9 9 7 7 7 6 6 6 6 5 4 3 3 3 3 3 3 3 2 2 2 2 2 2
11 10 10 9 8 8 9 9 10 9 10 9 9 10 10 11 10 11 10 10 9 8 8 7 7 6 6 6 5 5 4 4 3 3 2 2 2 2 1 1 1 1
9 9 9 9 8 8 8 10 10 10 10 10 10 9 10 12 11 11 11 11 10 9 9 9 8 7 7 7 6 5 5 4 4 4 4 3 3 3 2 2 2 3
7 7 7 5 9 9 9 9 8 9 9 9 9 10 10 11 12 12 12 12 11 10 11 10 9 9 8 7 6 6 6 5 5 5 5 4 3 2 2 2 1 2
7 6 5 5 5 9 11 7 6 7 10 11 11 11 11 12 13 12 12 12 12 12 11 11 11 10 9 8 7 8 6 5 6 6 5 4 4 4 4 2 2 3
4 5 6 8 7 6 6 9 5 7 8 10 11 11 12 12 12 13 13 13 12 12 12 11 11 11 9 9 9 9 8 7 7 7 6 5 5 4 4 4 3 3
7 7 9 10 11 10 9 11 11 8 7 9 10 10 10 11 12 12 13 14 13 13 13 12 12 11 11 10 10 10 9 9 8 7 6 6 5 5 4 3 3 3
4 4 4 4 7 11 11 10 12 9 9 9 10 10 11 12 12 13 13 14 13 14 14 14 14 13 12 11 10 10 10 9 8 8 7 6 5 5 3 3 4 4
1 3 5 5 5 6 11 10 7 7 9 9 12 11 10 9 13 12 13 15 15 15 15 14 14 13 13 12 11 10 9 9 8 8 7 6 6 5 5 5 4 3
4 2 3 5 9 10 11 11 9 10 11 10 9 11 12 9 6 10 12 15 15 15 15 15 14 13 12 11 11 10 10 9 8 7 7 6 5 5 4 4 4 4
1 1 2 3 4 4 5 5 7 8 9 9 9 12 13 13 11 10 11 14 15 15 14 12 13 13 12 12 10 10 9 8 8 7 7 6 5 5 5 4 5 4
4 3 2 3 4 6 5 5 7 7 8 9 9 11 11 10 9 11 10 15 16 14 14 13 13 12 11 11 11 10 8 8 7 7 7 6 6 6 5 5 5 5
1 0 2 3 4 5 5 4 5 6 6 8 9 11 10 10 10 10 12 16 15 13 12 12 11 10 9 14 11 10 10 8 7 7 7 6 6 6 6 5 6 5
2 2 2 4 3 3 4 5 6 5 7 8 8 8 10 9 10 11 12 12 10 10 11 11 10 4 12 13 12 11 10 8 8 7 7 6 6 5 6 6 6 6
3 3 4 4 4 5 5 5 5 5 7 7 8 8 8 9 10 10 11 8 8 12 10 7 6 10 12 13 12 11 8 8 7 6 6 6 6 6 5 6 6 5
4 4 4 3 4 4 5 5 6 6 6 7 7 6 6 7 8 8 10 8 5 6 7 8 6 12 14 15 12 10 7 5 7 7 7 6 6 6 5 5 5 5
4 4 4 4 4 5 6 6 6 7 6 6 6 6 7 7 7 9 8 7 8 9 9 6 9 10 14 12 12 11 8 2 5 7 6 5 5 6 5 6 6 6
4 4 5 5 5 6 6 7 7 7 7 6 6 7 8 8 10 11 11 10 10 11 9 9 7 12 12 13 12 11 8 3 5 5 4 4 5 5 6 6 6 6
4 5 5 6 6 6 7 7 7 7 7 7 7 7 7 7 7 9 10 11 12 9 7 10 7 11 12 12 12 10 8 4 4 5 5 5 5 6 6 6 6 6
5 5 6 6 6 7 7 8 8 8 7 7 8 8 8 8 8 8 9 11 11 9 9 9 10 10 12 13 12 10 7 4 4 5 5 6 6 6 6 7 7 7
6 6 7 7 7 8 8 8 8 8 8 7 8 8 8 8 8 8 8 9 9 9 9 11 10 11 13 13 12 12 8 5 5 5 5 5 5 6 6 6 7 6
7 7 7 7 7 7 7 8 8 8 8 7 8 8 8 8 8 7 6 7 8 7 13 13 11 11 13 13 12 13 7 4 3 3 4 5 5 5 5 6 6 6
7 8 8 7 7 7 7 8 8 9 9 8 8 8 8 8 7 6 7 6 7 10 10 10 11 8 10 13 12 10 8 1 2 4 5 4 5 5 6 5 6 7
Wind_Direction
184 183 180 183 188 179 180 184 173 168 174 165 166 166 165 155 162 162 147 148 134 134 128 118 111 105 104 93 63 68 77 74 68 68 64 56 54 42 43 36 33 18
189 191 185 184 193 181 182 191 177 173 177 170 169 166 162 158 169 165 159 154 154 144 144 140 134 130 130 107 98 97 100 102 96 97 101 96 94 78 54 40 36 8
192 195 194 192 193 187 180 186 182 178 181 179 169 170 162 162 172 168 168 167 165 158 156 152 147 144 130 121 136 129 108 117 113 111 92 79 66 76 82 50 44 19
196 197 201 201 200 190 185 185 187 187 184 185 177 174 166 165 174 170 170 175 170 169 168 164 159 155 152 147 157 137 139 136 116 125 141 134 128 102 78 69 49 31
201 201 202 204 207 199 187 188 194 193 191 188 180 178 170 170 175 174 174 178 176 176 173 172 169 163 160 163 169 149 167 151 151 180 150 139 120 115 141 145 74 200
206 210 212 212 211 209 200 200 199 206 198 191 187 186 179 175 180 177 179 180 180 180 178 176 176 168 175 169 172 165 177 175 162 184 173 177 170 179 165 190 185 214
208 207 216 231 246 229 217 210 215 215 205 195 192 195 185 183 186 183 183 184 183 184 182 182 179 177 180 174 182 173 186 171 171 193 192 181 177 180 194 212 256 306
210 219 202 201 226 249 241 195 229 231 226 205 206 198 195 190 192 187 188 188 189 188 188 186 185 183 182 182 187 179 179 172 186 193 206 179 192 216 176 199 218 274
224 247 250 231 222 235 249 262 229 229 246 231 212 204 201 198 198 191 192 191 191 192 191 191 190 188 186 189 189 183 182 182 190 197 200 187 202 211 224 178 219 226
195 217 247 243 231 219 216 221 230 225 226 245 232 216 212 211 215 206 197 195 195 194 193 193 193 190 189 193 191 187 189 188 190 194 195 199 208 205 215 211 233 227
339 299 299 323 308 292 262 238 241 228 227 227 240 233 226 223 213 217 211 203 199 197 196 194 194 192 190 193 192 190 193 190 192 191 196 202 204 209 206 245 232 233
202 242 243 236 283 281 277 271 252 242 225 224 229 222 218 220 227 223 217 215 209 202 200 196 195 193 191 193 192 189 194 193 193 193 191 198 194 208 211 205 223 246
51 3 272 228 201 208 219 234 235 242 245 245 247 243 231 222 217 235 230 222 219 210 204 198 193 191 191 190 191 187 193 190 194 191 190 196 197 205 210 209 215 228
75 304 340 352 325 310 281 249 249 259 255 242 237 245 245 231 211 216 241 237 229 215 211 201 195 190 190 187 186 184 188 187 191 189 195 188 194 207 203 205 213 222
175 182 194 229 244 261 272 275 263 255 249 247 241 240 238 241 235 219 221 244 230 217 208 206 210 195 189 180 181 180 178 183 188 192 197 189 188 201 196 203 209 212
18 194 218 206 233 238 244 243 254 265 260 254 250 249 247 241 228 232 228 236 226 217 208 206 212 213 155 156 164 168 174 181 182 190 194 196 194 195 192 208 214 209
319 313 300 265 261 267 269 267 263 251 251 255 251 252 253 250 244 232 239 232 225 228 211 210 208 160 131 133 135 153 169 178 174 186 194 198 194 201 202 206 219 222
321 308 297 305 296 290 280 277 275 268 257 248 253 248 248 253 244 240 233 226 234 233 225 186 166 128 140 124 128 144 156 165 179 187 187 196 202 204 210 219 225 229
292 285 280 281 280 280 288 276 265 259 257 258 250 249 254 245 245 235 240 222 178 173 162 164 120 147 140 142 141 129 119 163 175 191 191 199 204 207 221 231 231 235
287 297 300 297 299 289 283 271 262 263 257 251 248 232 226 240 237 239 244 226 192 201 206 154 141 155 147 143 138 132 138 181 215 182 192 202 203 209 219 234 240 251
306 314 308 309 301 296 289 283 274 269 262 251 248 244 235 227 224 228 228 235 226 215 196 139 158 155 151 147 139 141 152 209 218 168 190 215 224 224 231 237 245 247
301 301 300 301 299 296 293 285 281 269 254 256 259 252 241 238 235 231 229 225 224 213 157 141 138 160 153 148 147 147 160 202 194 174 205 224 222 228 227 237 240 238
287 292 294 295 296 294 288 287 285 277 263 255 252 249 248 242 238 231 227 224 216 185 156 137 144 171 158 150 150 154 174 202 181 202 212 216 227 230 235 240 241 247
280 285 286 289 293 293 295 294 288 280 271 257 254 256 244 239 246 239 230 220 197 178 143 142 153 166 165 157 157 168 192 190 199 214 221 233 239 235 247 251 253 236
281 283 286 285 283 287 291 287 281 277 268 262 256 252 256 250 237 236 221 202 184 141 119 142 152 165 168 160 164 176 200 209 232 250 249 246 253 259 253 263 265 229
276 272 270 274 277 283 284 283 281 277 266 258 256 253 252 248 237 223 215 179 125 121 137 145 151 163 174 165 168 170 205 347 354 284 265 263 268 270 285 284 286 288